{"data":{"norad_id":61769,"epoch":"2026-05-25T04:52:19.219872Z","epoch_age_seconds":57380,"freshness":"FRESH","line1":"1 61769U 24199AL  26145.20300023  .00031300  00000+0  51274-3 0  9990","line2":"2 61769  97.2977  20.8179 0005087  34.9929 325.1657 15.52413265130855","mean_motion":15.52413265,"eccentricity":0.0005087,"inclination_deg":97.2977,"raan_deg":20.8179,"arg_perigee_deg":34.9929,"mean_anomaly_deg":325.1657,"bstar":0.00051274,"rev_number":13085,"period_min":92.758805433165,"perigee_km":406.22942410773,"apogee_km":413.13535155291,"semimajor_km":6787.8193878303,"source":"CELESTRAK","updated_at":"2026-05-25T13:38:02.558775Z"}}